User: anonymous
Location: Muenchen
(48.1800°N, 11.5800°E)
Time: 13:38:23
(UTC+02:00)
Language:

Cosmos 2233 Rocket - Orbit

View from above orbital plane
View from above orbital plane
View from above satellite
View from above satellite

Ground track
Ground track

The orbit data is extracted from the following two-line orbital elements,

1 22488U 93008B   14244.74016289  .00000042  00000-0  27181-4 0  9311
2 22488 082.9418 117.0469 0025125 199.0881 224.0698 13.77637130 83894
Epoch (UTC): 01 September 2014 17:45:50
Eccentricity: 0.0025125
inclination: 82.9418°
perigee height: 954 km
apogee height: 991 km
right ascension of ascending node: 117.0469°
argument of perigee: 199.0881°
revolutions per day: 13.77637130
mean anomaly at epoch: 224.0698°
orbit number at epoch: 8389

The dashed part of the orbit path shows where the satellite is in the earth's shadow,  

DLR